OSCAR 30 (15935 NORAD) Tracking and Keplerian Element Data

This shows tracking and keplerian element data for the satellite.

Feedback or suggestion? Click here.




ElementValue
Catalog15935
NameOSCAR 30
Epoch Orbit92289
Epoch Day34.91564037
Epoch Year2025
RAAN94.721
Inclination90.1724
Eccentricity0.0166245
Argument of Perigee243.1615
Mean Anonmoly292.006
Mean Motion13.36005046
Decay Rate1.75E-06
L11 15935U 85066A 25034.91564037 .00000175 00000+0 30246-3 0 9997
L22 15935 90.1724 94.7210 0166245 243.1615 292.0060 13.36005046922894



Live tracking and technical data element details for OSCAR 30 (NORAD 15935). OSCAR 30 can be tracked NOW for your location showing map with azimuth and elevation plus other details from your city location.







IsCatalogInMostPopularTable: catalog: 15935, numindb: 406
Update: records affected: 1



GetName: 15935 OSCAR 30

Hit Count: updated at: Sat, 17 May 2025 08:54:11 GMT